When you browse on this site, cookies collect data to enhance your experience and personalize the content and advertising you see.
Visit our Privacy Policy to learn more. By continuing to use the site, you agree to this use of cookies and data.
  • In Romania
  • List of Countries
  • For 7 days
  • Water Temperature
  • Satellite Maps
  • Weather Map
  • Weather Widgets
  • user-avatar
    Login

    Hourly Weather Buffalo

    Today, 16 February, Saturday

    Time Temperature Precipitation Wind Pressure Humidity
    00:00 -8°C° 0 mm 6 mps 741 mmHg 73%
    01:00 -8°C° 0 mm 6 mps 742 mmHg 72%
    02:00 -8°C° 0 mm 6 mps 742 mmHg 74%
    03:00 -8°C° 0 mm 6 mps 743 mmHg 76%
    04:00 -8°C° 0 mm 6 mps 743 mmHg 78%
    05:00 -8°C° 0 mm 6 mps 743 mmHg 78%
    06:00 -7°C° 0 mm 5 mps 744 mmHg 77%
    07:00 -7°C° 0 mm 5 mps 744 mmHg 77%
    08:00 -7°C° 0 mm 5 mps 745 mmHg 75%
    09:00 -7°C° 0 mm 4 mps 745 mmHg 72%
    10:00 -7°C° 0 mm 4 mps 746 mmHg 69%
    11:00 -5°C° 0 mm 4 mps 746 mmHg 67%
    12:00 -5°C° 0 mm 4 mps 746 mmHg 66%
    13:00 -5°C° 0 mm 4 mps 746 mmHg 64%
    14:00 -5°C° 0 mm 4 mps 746 mmHg 64%
    15:00 -5°C° 0 mm 3 mps 746 mmHg 64%
    16:00 -5°C° 0 mm 3 mps 746 mmHg 64%
    17:00 -5°C° 0 mm 3 mps 746 mmHg 66%
    18:00 -5°C° 0 mm 3 mps 747 mmHg 69%
    19:00 -6°C° 0 mm 3 mps 747 mmHg 71%
    20:00 -6°C° 0 mm 3 mps 747 mmHg 72%
    21:00 -7°C° 0 mm 3 mps 748 mmHg 73%
    22:00 -7°C° 0 mm 3 mps 748 mmHg 74%
    23:00 -7°C° 0 mm 3 mps 748 mmHg 74%

    Tomorrow, 17 February, Sunday

    Time Temperature Precipitation Wind Pressure Humidity
    00:00 -7°C° 0 mm 2 mps 748 mmHg 74%
    01:00 -7°C° 0 mm 2 mps 748 mmHg 73%
    02:00 -7°C° 0 mm 2 mps 748 mmHg 74%
    03:00 -7°C° 0 mm 2 mps 748 mmHg 74%
    04:00 -6°C° 0 mm 1 mps 748 mmHg 74%
    05:00 -6°C° 0 mm 1 mps 748 mmHg 75%
    06:00 -6°C° 0 mm 1 mps 749 mmHg 76%
    07:00 -6°C° 0 mm 1 mps 749 mmHg 77%
    08:00 -7°C° 0 mm 2 mps 749 mmHg 75%
    09:00 -7°C° 0 mm 3 mps 748 mmHg 73%
    10:00 -8°C° 0 mm 4 mps 748 mmHg 71%
    11:00 -7°C° 0 mm 4 mps 748 mmHg 69%
    12:00 -5°C° 0 mm 4 mps 747 mmHg 67%
    13:00 -5°C° 0 mm 4 mps 747 mmHg 64%
    14:00 -5°C° 0 mm 4 mps 746 mmHg 65%
    15:00 -5°C° 0 mm 4 mps 745 mmHg 66%
    16:00 -6°C° 0 mm 5 mps 745 mmHg 67%
    17:00 -6°C° 0.2 mm 5 mps 744 mmHg 72%
    18:00 -7°C° 0.2 mm 5 mps 744 mmHg 76%
    19:00 -9°C° 0.2 mm 6 mps 744 mmHg 80%
    20:00 -9°C° 0.3 mm 6 mps 743 mmHg 82%
    21:00 -9°C° 0.3 mm 6 mps 743 mmHg 84%
    22:00 -9°C° 0.3 mm 6 mps 743 mmHg 86%
    23:00 -9°C° 0.5 mm 6 mps 742 mmHg 87%

    Day after tomorrow, 18 February, Monday

    Time Temperature Precipitation Wind Pressure Humidity
    00:00 -9°C° 0.5 mm 6 mps 742 mmHg 88%
    01:00 -10°C° 0.5 mm 6 mps 741 mmHg 90%
    02:00 -10°C° 0.5 mm 6 mps 741 mmHg 90%
    03:00 -10°C° 0.5 mm 6 mps 741 mmHg 91%
    04:00 -10°C° 0.5 mm 6 mps 741 mmHg 92%
    05:00 -10°C° 0.3 mm 5 mps 742 mmHg 92%
    06:00 -10°C° 0.3 mm 5 mps 743 mmHg 92%
    07:00 -11°C° 0.3 mm 5 mps 743 mmHg 92%
    08:00 -9°C° 0.2 mm 4 mps 744 mmHg 91%
    09:00 -9°C° 0.2 mm 4 mps 745 mmHg 89%
    10:00 -9°C° 0.2 mm 4 mps 746 mmHg 88%
    11:00 -9°C° 0.1 mm 4 mps 747 mmHg 87%
    12:00 -9°C° 0.1 mm 4 mps 748 mmHg 86%
    13:00 -8°C° 0.1 mm 4 mps 748 mmHg 85%
    14:00 -7°C° 0.1 mm 3 mps 749 mmHg 84%
    15:00 -7°C° 0.1 mm 3 mps 750 mmHg 82%
    16:00 -7°C° 0.1 mm 3 mps 750 mmHg 80%
    17:00 -8°C° 0 mm 3 mps 751 mmHg 82%
    18:00 -8°C° 0 mm 2 mps 752 mmHg 84%
    19:00 -7°C° 0 mm 1 mps 753 mmHg 85%
    20:00 -8°C° 0 mm 2 mps 754 mmHg 85%
    21:00 -8°C° 0 mm 2 mps 754 mmHg 85%
    22:00 -9°C° 0 mm 2 mps 755 mmHg 84%
    23:00 -9°C° 0 mm 2 mps 755 mmHg 86%

    19 February, Tuesday

    Time Temperature Precipitation Wind Pressure Humidity
    00:00 -10°C° 0 mm 2 mps 756 mmHg 87%
    01:00 -10°C° 0 mm 2 mps 756 mmHg 88%
    02:00 -12°C° 0 mm 2 mps 756 mmHg 88%
    03:00 -12°C° 0 mm 2 mps 756 mmHg 89%
    04:00 -12°C° 0 mm 2 mps 756 mmHg 90%
    05:00 -13°C° 0 mm 2 mps 757 mmHg 90%
    06:00 -13°C° 0 mm 2 mps 757 mmHg 90%
    07:00 -13°C° 0 mm 2 mps 758 mmHg 90%
    08:00 -12°C° 0 mm 2 mps 758 mmHg 87%
    09:00 -12°C° 0 mm 3 mps 759 mmHg 84%
    10:00 -9°C° 0 mm 3 mps 759 mmHg 82%
    11:00 -9°C° 0 mm 3 mps 759 mmHg 80%
    12:00 -9°C° 0 mm 4 mps 759 mmHg 78%
    13:00 -8°C° 0 mm 4 mps 759 mmHg 77%
    14:00 -8°C° 0 mm 4 mps 758 mmHg 76%
    15:00 -8°C° 0 mm 4 mps 758 mmHg 75%
    16:00 -6°C° 0 mm 3 mps 758 mmHg 74%
    17:00 -7°C° 0 mm 3 mps 758 mmHg 77%
    18:00 -7°C° 0 mm 2 mps 758 mmHg 80%
    19:00 -6°C° 0 mm 1 mps 758 mmHg 83%
    20:00 -7°C° 0 mm 1 mps 758 mmHg 84%
    21:00 -7°C° 0 mm 1 mps 758 mmHg 85%
    22:00 -8°C° 0 mm 1 mps 758 mmHg 86%
    23:00 -8°C° 0 mm 1 mps 758 mmHg 86%

    20 February, Wednesday

    Time Temperature Precipitation Wind Pressure Humidity
    00:00 -8°C° 0 mm 1 mps 758 mmHg 87%
    01:00 -8°C° 0 mm 1 mps 758 mmHg 87%
    02:00 -8°C° 0 mm 1 mps 757 mmHg 87%
    03:00 -9°C° 0 mm 2 mps 757 mmHg 87%
    04:00 -9°C° 0 mm 2 mps 756 mmHg 87%
    05:00 -10°C° 0 mm 3 mps 756 mmHg 86%
    06:00 -11°C° 0 mm 4 mps 755 mmHg 84%
    07:00 -11°C° 0 mm 5 mps 755 mmHg 82%
    08:00 -11°C° 0 mm 5 mps 754 mmHg 82%
    09:00 -10°C° 0 mm 5 mps 754 mmHg 82%
    10:00 -8°C° 0 mm 5 mps 753 mmHg 82%
    11:00 -8°C° 0.3 mm 5 mps 752 mmHg 84%
    12:00 -7°C° 0.3 mm 5 mps 751 mmHg 86%
    13:00 -5°C° 0.3 mm 4 mps 751 mmHg 87%
    14:00 -5°C° 0.2 mm 4 mps 750 mmHg 87%
    15:00 -5°C° 0.2 mm 4 mps 749 mmHg 88%
    16:00 -4°C° 0.2 mm 4 mps 748 mmHg 88%
    17:00 -4°C° 0.1 mm 4 mps 747 mmHg 88%
    18:00 -4°C° 0.1 mm 3 mps 747 mmHg 89%
    19:00 -4°C° 0.1 mm 3 mps 746 mmHg 90%
    20:00 -4°C° 0 mm 3 mps 746 mmHg 91%
    21:00 -3°C° 0 mm 2 mps 745 mmHg 92%
    22:00 -2°C° 0 mm 2 mps 745 mmHg 93%
    23:00 0°C° 0.1 mm 1 mps 745 mmHg 94%

    21 February, Thursday

    Time Temperature Precipitation Wind Pressure Humidity
    00:00 0°C° 0.1 mm 1 mps 744 mmHg 94%
    01:00 0°C° 0.1 mm 1 mps 744 mmHg 95%
    02:00 0°C° 0.1 mm 1 mps 744 mmHg 95%
    03:00 0°C° 0.1 mm 1 mps 744 mmHg 96%
    04:00 -2°C° 0.1 mm 2 mps 744 mmHg 96%
    05:00 -2°C° 0 mm 2 mps 744 mmHg 97%
    06:00 -3°C° 0 mm 2 mps 745 mmHg 97%
    07:00 -3°C° 0 mm 2 mps 745 mmHg 97%
    08:00 -3°C° 0 mm 2 mps 746 mmHg 96%
    09:00 -3°C° 0 mm 2 mps 747 mmHg 95%
    10:00 -3°C° 0 mm 2 mps 748 mmHg 94%
    11:00 -3°C° 0.1 mm 2 mps 748 mmHg 94%
    12:00 -2°C° 0.1 mm 2 mps 748 mmHg 93%
    13:00 -2°C° 0.1 mm 2 mps 749 mmHg 93%
    14:00 -2°C° 0 mm 2 mps 749 mmHg 92%
    15:00 -2°C° 0 mm 2 mps 750 mmHg 91%
    16:00 -2°C° 0 mm 2 mps 750 mmHg 90%
    17:00 0°C° 0 mm 1 mps 751 mmHg 91%
    18:00 -1°C° 0 mm 1 mps 751 mmHg 93%
    19:00 -1°C° 0 mm 1 mps 752 mmHg 94%
    20:00 -2°C° 0 mm 1 mps 753 mmHg 94%
    21:00 -3°C° 0 mm 0 mps 753 mmHg 94%
    22:00 -4°C° 0 mm 0 mps 753 mmHg 94%
    23:00 -4°C° 0 mm 0 mps 754 mmHg 94%
    Show more